To NAV CANADA Home Page Login to a new session Search on AWWS site Feedback and Comments Disclaimer Vers la page française équivalente Tips FAQ What's new on the site To the Forecasts and Observations / NOTAM section To "File a Flight Plan" website Publications and other links Update of the User's profile FIC Telephone Numbers My Weather Data Folder Route Weather Data Regional Weather Data Local Weather Data To the Forecasts and Observations / NOTAM section
Request Generated 09/26/2017 at 05:34:12 UTC . Weather information available at that time is displayed.

METAR/TAF

ROBERVAL/QC    

METAR CYRJ 260500Z 25010G16KT 20SM SCT240 24/17 A2986 RMK CI4 SLP112
DENSITY ALT 1900FT=
METAR CYRJ 260400Z 24010G18KT 20SM FEW240 24/18 A2986 RMK CI2 SLP113
DENSITY ALT 1900FT=
METAR CYRJ 260300Z 24010G17KT 20SM SCT230 25/18 A2987 RMK CI4 SLP114
DENSITY ALT 2000FT=

*** REMARK        : Forecast period has ended; this was the last TAF issued
*** REMARQUE : La période de prévision est échue; ceci était le dernier TAF qui a été émis
TAF CYRJ 251941Z 2520/2602 25012G22KT P6SM SCT060
FM252300 24010KT P6SM SKC
RMK NXT FCST WILL BE ISSUED AT 261145Z=
Your time UTC time
Weather data provided by Environment Canada and NAV CANADA